Bsp Bpl Pas 18236 Schedule, Route, Map - Bilaspur to Bhopal train
Must See India - Best Travel Guide to India
Home   |   Login   |   Register   |   Contact Us
 

Bsp Bpl Pas (18236)

Print
     

Service Days:

All Days

Classes:

First Class (FC), Sleeper (SL)

Duration:

21h 50m

Station Arrival Departure Stop Time Distance Day
1 Bilaspur (BSP) starts 08:25 pm Starts 0 km 1
2 Usalapur (USL) 08:38 pm 08:40 pm 2 min 9 km 1
3 Ghutku (GTK) 08:45 pm 08:46 pm 1 min 16 km 1
4 Kalmitar (KLTR) 08:54 pm 08:55 pm 1 min 24 km 1
5 Kargi Road (KGB) 09:03 pm 09:04 pm 1 min 32 km 1
6 Salkaroad (SLKR) 09:13 pm 09:14 pm 1 min 40 km 1
7 Belgahna (BIG) 09:24 pm 09:25 pm 1 min 48 km 1
8 Tenganmada (TGQ) 09:34 pm 09:35 pm 1 min 58 km 1
9 Khongsara (KGS) 09:44 pm 09:45 pm 1 min 66 km 1
10 Bhanwar Tonk (BHTK) 10:01 pm 10:02 pm 1 min 79 km 1
11 Khodri (KOI) 10:18 pm 10:19 pm 1 min 90 km 1
12 Sarbahara (SBRA) 10:27 pm 10:28 pm 1 min 96 km 1
13 Pendra Road (PND) 10:36 pm 10:41 pm 5 min 101 km 1
14 Harri (HRB) 10:47 pm 10:48 pm 1 min 109 km 1
15 Venkatnagra (VKR) 10:57 pm 10:58 pm 1 min 120 km 1
16 Nigaura (NIQ) 11:06 pm 11:07 pm 1 min 128 km 1
17 Jaithari (JTI) 11:16 pm 11:17 pm 1 min 138 km 1
18 Chhulha (CLF) 11:34 pm 11:35 pm 1 min 146 km 1
19 Anuppur Jn (APR) 12:15 am 12:45 am 30 min 151 km 2
20 Amlai (AAL) 12:55 am 12:56 am 1 min 164 km 2
21 Burhar (BUH) 01:07 am 01:08 am 1 min 173 km 2
22 Singhpur (SNGP) 01:23 am 01:24 am 1 min 186 km 2
23 Shahdol (SDL) 02:20 am 02:30 am 10 min 192 km 2
24 Badhwa Bara (BDWA) 02:42 am 02:43 am 1 min 201 km 2
25 Ghunghuti (GGT) 02:56 am 02:57 am 1 min 213 km 2
26 Birsinghpur (BRS) 03:17 am 03:18 am 1 min 230 km 2
27 Nowrozabad (NRZB) 03:26 am 03:27 am 1 min 237 km 2
28 Karkeli (KKI) 03:37 am 03:38 am 1 min 247 km 2
29 Umaria (UMR) 03:55 am 04:00 am 5 min 259 km 2
30 Lorha (LOA) 04:08 am 04:09 am 1 min 269 km 2
31 Chandia Road (CHD) 04:24 am 04:25 am 1 min 278 km 2
32 Vilayatkalan Rd (VYK) 04:34 am 04:35 am 1 min 288 km 2
33 Rupaund (RPD) 04:44 am 04:45 am 1 min 295 km 2
34 Jhalwara (JLW) 05:29 am 05:30 am 1 min 307 km 2
35 Katni Murwara (KMZ) 06:35 am 06:55 am 20 min 318 km 2
36 Hardua (HDU) 07:08 am 07:09 am 1 min 333 km 2
37 Rithi (REI) 07:22 am 07:23 am 1 min 348 km 2
38 Bakhleta (BQQ) 07:34 am 07:36 am 2 min 355 km 2
39 Salaia (SYA) 07:45 am 07:47 am 2 min 367 km 2
40 Sagoni (SAO) 08:08 am 08:10 am 2 min 385 km 2
41 Ghatera (GEA) 08:33 am 08:35 am 2 min 401 km 2
42 Bandakpur (BNU) 08:48 am 08:50 am 2 min 412 km 2
43 Karhiya Bhadeli (KYX) 09:04 am 09:05 am 1 min 419 km 2
44 Damoh (DMO) 09:40 am 09:50 am 10 min 427 km 2
45 Aslana (ANA) 10:04 am 10:05 am 1 min 440 km 2
46 Patharia (PHA) 10:15 am 10:20 am 5 min 454 km 2
47 Ganeshganj (GAJ) 10:30 am 10:35 am 5 min 467 km 2
48 Girwar (GW) 10:59 am 11:00 am 1 min 480 km 2
49 Lidhora Khurd (LDA) 11:14 am 11:15 am 1 min 490 km 2
50 Makronia (MKRN) 11:29 am 11:30 am 1 min 498 km 2
51 Saugor (SGO) 12:00 pm 12:10 pm 10 min 505 km 2
52 Nariaoli (NOI) 12:34 pm 12:35 pm 1 min 523 km 2
53 Isarwara (ISH) 12:44 pm 12:45 pm 1 min 531 km 2
54 Jeruwa Khera (JRK) 12:59 pm 01:00 pm 1 min 539 km 2
55 Sumreri (SMRR) 01:14 pm 01:15 pm 1 min 549 km 2
56 Khurai (KYE) 01:28 pm 01:30 pm 2 min 557 km 2
57 Baghora (BJQ) 01:49 pm 01:50 pm 1 min 569 km 2
58 Bina Jn (BINA) 02:20 pm 02:35 pm 15 min 579 km 2
59 Mandi Bamora (MABA) 02:54 pm 02:55 pm 1 min 596 km 2
60 Kalhar (KAH) 03:06 pm 03:07 pm 1 min 605 km 2
61 Ganj Basoda (BAQ) 03:36 pm 03:37 pm 1 min 625 km 2
62 Gulabhganj (GLG) 03:56 pm 03:57 pm 1 min 643 km 2
63 Vidisha (BHS) 04:14 pm 04:15 pm 1 min 664 km 2
64 Sanchi (SCI) 04:29 pm 04:30 pm 1 min 673 km 2
65 Salamatpur (SMT) 04:39 pm 04:40 pm 1 min 681 km 2
66 Dewanganj (DWG) 04:54 pm 04:55 pm 1 min 690 km 2
67 Bhopal (BPL) 06:15 pm ends Ends 717 km 2

 

 Click to view map

You can drag the map with your mouse, and double-click to zoom.

People who viewed this page also viewed

 
Alchi honeymoon packages from Mumbai
 
Bandipur-National-Park Honeymoon Packages from Kolkata
 
Dadra honeymoon packages from Delhi
 
Honeymoon trip from Bangalore to Dalhousie
 
Kargil honeymoon packages from Hyderabad
 
Meghalaya tour packages from Mumbai
 
Ooty packages from Kolkata
 
Srinagar honeymoon packages from Delhi
 
Srinagar packages from Kolkata
 
Tamil Nadu packages from Chennai
 
Uttaranchal packages from Kolkata
 
hotels in Kochi
 

Destinations

 
 

More

 
debug_temp: train_route : train:1543:Bsp Bpl Pas:Train